This is the latest recevied weather packets stored in our database for station/object SA3ARQ-13. If no packets are shown the sender has not sent any weather packets the latest 10 day(s).
| Time | Temp. | Humidity | Pressure | Rain* | Wind** | Luminosity | Snow |
|---|---|---|---|---|---|---|---|
| 1777746131 | 22.22° C | 36% | 1006 hPa | - | - | - | - |
| 1777745231 | 22.78° C | 36% | 1005.8 hPa | - | - | - | - |
| 1777744331 | 22.78° C | 35% | 1005.7 hPa | - | - | - | - |
| 1777743431 | 23.33° C | 35% | 1005.4 hPa | - | - | - | - |
| 1777742531 | 23.33° C | 34% | 1005.3 hPa | - | - | - | - |
| 1777741631 | 23.89° C | 34% | 1005.2 hPa | - | - | - | - |
| 1777740731 | 23.89° C | 35% | 1005 hPa | - | - | - | - |
| 1777739831 | 24.44° C | 33% | 1005 hPa | - | - | - | - |
| 1777738931 | 24.44° C | 32% | 1005.1 hPa | - | - | - | - |
| 1777738031 | 25° C | 32% | 1005 hPa | - | - | - | - |
| 1777737130 | 25° C | 31% | 1005.1 hPa | - | - | - | - |
| 1777736230 | 25° C | 31% | 1005.2 hPa | - | - | - | - |
| 1777735330 | 25° C | 31% | 1005.2 hPa | - | - | - | - |
| 1777734430 | 25.56° C | 31% | 1005.2 hPa | - | - | - | - |
| 1777733530 | 25.56° C | 31% | 1005.2 hPa | - | - | - | - |
| 1777732630 | 25.56° C | 31% | 1005.5 hPa | - | - | - | - |
| 1777731730 | 25° C | 31% | 1005.5 hPa | - | - | - | - |
| 1777729930 | 24.44° C | 32% | 1005.8 hPa | - | - | - | - |
| 1777729030 | 24.44° C | 32% | 1005.9 hPa | - | - | - | - |
| 1777728130 | 24.44° C | 32% | 1006 hPa | - | - | - | - |
| 1777727230 | 24.44° C | 31% | 1006.4 hPa | - | - | - | - |
| 1777726330 | 23.89° C | 32% | 1006.3 hPa | - | - | - | - |
| 1777725430 | 23.89° C | 32% | 1006.6 hPa | - | - | - | - |
| 1777724530 | 23.33° C | 32% | 1006.8 hPa | - | - | - | - |
| 1777723630 | 23.33° C | 34% | 1007.1 hPa | - | - | - | - |
* Rain since midnight (hover to see other rain measurements)
** Current wind speed in m/s (hover to see current wind gust speed)